Overview Statistics Trail Chart Weather Telemetry Raw packets
 

This is the latest recevied weather packets stored in our database for station/object IW1PPB-3. If no packets are shown the sender has not sent any weather packets the latest 10 day(s).

<< 50 51 52 53 54 55 >>
Time Temp. Humidity Pressure Rain* Wind** Luminosity Snow
1787791414 24.44° C 70% 1015 hPa 0 mm - - -
1787790830 25° C 69% 1015.2 hPa 0 mm - - -
1787790221 25° C 67% 1015.1 hPa 0 mm - - -
1787789610 25° C 66% 1015.1 hPa 0 mm - - -
1787789028 25° C 66% 1015.2 hPa 0 mm - - -
1787788408 25° C 67% 1015.1 hPa 0 mm - - -
1787787829 25.56° C 69% 1015.3 hPa 0 mm - - -
1787787217 25.56° C 68% 1015.4 hPa 0 mm - - -
1787786609 25° C 66% 1015.6 hPa 0 mm - - -
1787786024 25° C 68% 1015.9 hPa 0 mm - - -
1787785419 25° C 69% 1016 hPa 0 mm - - -
1787784803 25° C 69% 1016 hPa 0 mm - - -
1787784213 25° C 71% 1016.1 hPa 0 mm - - -
1787783620 25° C 74% 1016.3 hPa 0 mm - - -
1787783016 25° C 76% 1016.3 hPa 0 mm - - -
1787782421 25.56° C 76% 1016.4 hPa 0 mm - - -
1787781814 25° C 74% 1016.2 hPa 0 mm - - -
1787781224 25.56° C 75% 1016.2 hPa 0 mm - - -
1787780612 25.56° C 76% 1016.1 hPa 0 mm - - -
1787780026 25° C 77% 1016.3 hPa 0 mm - - -
1787779415 25.56° C 79% 1016.4 hPa 0 mm - - -
1787778830 25.56° C 79% 1016.4 hPa 0 mm - - -
1787778222 25.56° C 79% 1016.3 hPa 0 mm - - -
1787777606 25.56° C 79% 1016.2 hPa 0 mm - - -
1787777022 26.11° C 79% 1016.3 hPa 0 mm - - -

* Rain latest hour (hover to see other rain measurements)
** Current wind speed in m/s (hover to see current wind gust speed)